星链-37537(STARLINK-37537)

导读

STARLINK-37537(NORAD编号69420)是美国太空探索技术公司(SpaceX)星链低轨互联网星座的成员卫星,该星座旨在为全球提供高速低延迟的互联网接入服务,重点覆盖传统网络难以覆盖的偏远区域。该卫星为第二代优化型星链卫星,于2025年6月28日随猎鹰9号火箭从美国卡纳维拉尔角太空军基地发射,属于Starlink Group 10-34批次,运行于近地轨道,轨道周期约94.3分钟,截至2026年6月处于正常在轨运行状态,星链卫星设计具备主动离轨能力,失效后可在5年内自然再入大气层完全焚毁,无地面安全风险。

基本信息
目录编号:
69420
目录名称:
STARLINK-37537
国际标识:
2026-126A
轨道中心:
EARTH
卫星名称:
星链-37537
卫星全名:
星链-37537(STARLINK-37537)
卫星状态:
在轨 (已飞行89 天)
发射日期:
2026-06-07 UTC
国别 :
美国 (US)
星等 :
--
轨道信息
数据来源 国际轨道数据
星历时间: 2026-09-02T11:29:23+0800
1天前
查看轨道信息
半长轴: 6843.687km
偏心率: 0.0002315
轨道倾角: 97.285°
近地点辐角 75.094°
升交点赤经 106.671°
平近点角 285.056°
近地点: 463.965km
远地点: 467.135km
周期: 93.906分钟
每日圈数: 15.334428
详细信息
固有亮度:
5
最大亮度:
2.5
卫星平台:
Starlink V1.0
覆盖范围:
全球
运营商:
太空探索技术公司
运营商所在国:
美国
制造商(研发单位):
太空探索技术公司
制造商所在国:
美国
使用方式:
暂无
卫星简介
Starlink 计划是 SpaceX 推出的全球卫星互联网项目,通过发射低轨道卫星,为全球尤其是偏远地区提供高速、低延迟的互联网服务。自 2019 年起,Starlink 已部署数千颗卫星,旨在缩小全球数字鸿沟,推动互联网普及。该项目还为军事、航空等行业提供通信支持,带来广泛经济效益。
2D轨道图
3D轨道图
轨道高度分析图
轨道倾角分析图
轨道综合分析图
查看轨道综合分析图